Location: Boiro
(42.6475°N, 8.8834°W)
Time: 00:08:03
(UTC+01:00)

Vanguard 3 - Visible Passes

Search period start: 30 November 2021 00:00
Search period end: 10 December 2021 00:00
Orbit: 509 x 3260 km, 33.3° (Epoch: 29 November)

Date Brightness Start Highest point End Pass type
(mag) Time Alt. Az. Time Alt. Az. Time Alt. Az.
30 Nov 11.1 03:46:01 19° SSE 03:53:29 24° SE 04:06:00 10° E visible
30 Nov 10.4 05:50:40 12° SW 06:07:58 46° SSE 06:21:26 10° E visible
30 Nov 10.0 08:05:09 10° WSW 08:22:44 58° S 08:33:38 10° ESE visible
01 Dec 11.3 02:36:58 15° SE 02:37:44 15° SE 02:46:17 10° ESE visible
01 Dec 10.7 04:41:35 24° SSW 04:51:34 37° SSE 05:05:57 10° E visible
01 Dec 10.2 06:47:55 10° WSW 07:06:33 55° S 07:19:24 10° E visible
02 Dec 10.9 03:32:17 26° SSE 03:35:23 27° SE 03:49:14 10° E visible
02 Dec 10.4 05:36:53 22° SW 05:50:02 49° SSE 06:04:33 10° E visible
02 Dec 10.0 07:46:47 10° WSW 08:05:09 60° S 08:16:59 10° ESE visible
03 Dec 11.3 02:22:47 17° ESE 02:22:47 17° ESE 02:30:11 10° E visible
03 Dec 10.6 04:27:23 34° S 04:33:28 41° SSE 04:48:55 10° E visible
03 Dec 10.1 06:31:58 15° WSW 06:48:44 58° S 07:02:34 10° E visible
04 Dec 10.8 03:17:43 31° SE 03:17:43 31° SE 03:32:10 10° E visible
04 Dec 10.3 05:22:17 33° SW 05:31:59 53° SSE 05:47:32 10° E visible
04 Dec 10.1 07:28:29 10° WSW 07:47:26 61° S 08:00:12 10° ESE visible
05 Dec 11.3 02:07:55 17° ESE 02:07:55 17° ESE 02:13:29 10° E visible
05 Dec 10.4 04:12:29 42° S 04:15:16 44° SSE 04:31:43 10° E visible
05 Dec 10.1 06:17:03 24° WSW 06:30:47 60° S 06:45:37 10° E visible
06 Dec 10.8 03:02:35 32° SE 03:02:35 32° SE 03:14:53 10° E visible
06 Dec 10.2 05:07:08 43° SSW 05:13:51 56° SSE 05:30:22 10° E visible
06 Dec 10.1 07:11:40 13° WSW 07:29:36 62° S 07:43:19 10° ESE visible
07 Dec 11.3 01:52:35 15° ESE 01:52:35 15° ESE 01:56:21 10° E visible
07 Dec 10.3 03:57:07 47° SSE 03:57:07 47° SSE 04:14:20 10° E visible
07 Dec 10.1 06:01:40 32° WSW 06:12:45 62° S 06:28:32 10° E visible
07 Dec 10.2 08:09:37 10° W 08:28:05 55° SSW 08:40:33 10° SE visible
08 Dec 10.8 02:47:02 30° ESE 02:47:02 30° ESE 02:57:21 10° E visible
08 Dec 10.1 04:51:34 52° SSW 04:55:40 58° SSE 05:13:03 10° E visible
08 Dec 10.1 06:56:07 20° WSW 07:11:38 62° S 07:26:18 10° ESE visible
09 Dec 11.4 01:36:54 13° E 01:36:54 13° E 01:38:54 10° E visible
09 Dec 10.3 03:41:26 48° SE 03:41:26 48° SE 03:56:48 10° E visible
09 Dec 10.1 05:45:58 41° WSW 05:54:38 63° S 06:11:19 10° ESE visible
09 Dec 10.2 07:51:26 10° W 08:10:10 54° SSW 08:23:32 10° SE visible
